Flag for U.S.A. Weather past 2 weeks in Austin, Texas, U.S.A.

Now
66 °F

Fog.


Feels Like: 66 °F
Forecast: 42 / 63 °F
Wind: 5 mph from North

Location: Camp Mabry / Austin City

Current Time: Dec 27, 2014 at 12:49:48 AM

Latest Report: Dec 27, 2014 at 12:00 AM


Visibility: 6 mi

Pressure: 29.96 "Hg

Humidity: 90%

Dew point: 63 °F

Location of AustinLocation

Historic Weather in Austin — Graph

°F

Austin temperature yesterday

Maximum temperature yesterday: 72 °F (at 3:51 PM)
Minimum temperature yesterday: 53 °F (at 4:51 AM)
Average temperature yesterday: 62 °F

Past Weeks' High & Low Weather Summary

 TemperatureHumidityPressure
High74 °F (Dec 22, 12:51 PM)100% (Dec 18, 2:51 AM)30.37 "Hg (Dec 18, 2:51 AM)
Low34 °F (Dec 25, 1:51 AM)23% (Dec 15, 2:51 PM)29.60 "Hg (Dec 22, 3:51 PM)
Average56 °F74%30.05 "Hg
* Reported Dec 12 12:51 AM — Midnight between Dec 26 and Dec 27, Austin, Weather by CustomWeather, © 2014

Note: Actual official high and low records may vary slightly from our data, if they occured in-between our weather recording intervals... More about our weather records

Advertising

Austin weather history for previous 24 hours

 ConditionsComfort  
Time TempWeatherWind HumidityBarometerVisibility
12:00 AM
Dec 27
66 °FFog.5 mph90%29.96 "Hg6 mi
10:51 PM
Dec 26
65 °FFog.5 mph91%29.96 "Hg6 mi
9:51 PM64 °FPassing clouds.6 mph90%29.95 "Hg9 mi
8:51 PM63 °FPassing clouds.3 mph87%29.94 "Hg10 mi
7:59 PM63 °FPassing clouds.3 mph87%29.94 "Hg10 mi
6:51 PM66 °FClear.3 mph75%29.90 "Hg10 mi
5:51 PM68 °FClear.5 mph70%29.88 "Hg10 mi
4:51 PM70 °FSunny.6 mph68%29.86 "Hg10 mi
3:51 PM72 °FSunny.10 mph64%29.85 "Hg10 mi
2:51 PM71 °FBroken clouds.8 mph68%29.85 "Hg10 mi
1:51 PM69 °FBroken clouds.7 mph76%29.87 "Hg10 mi
12:51 PM66 °FOvercast.6 mph84%29.90 "Hg10 mi
11:51 AM64 °FOvercast.6 mph87%29.95 "Hg10 mi
10:51 AM63 °FLow clouds.8 mph90%29.96 "Hg10 mi
9:51 AM60 °FLow clouds.6 mph93%29.97 "Hg10 mi
8:51 AM57 °FFog.3 mph96%29.96 "Hg6 mi
7:58 AM56 °FLow clouds.3 mph97%29.96 "Hg10 mi
6:51 AM55 °FMostly cloudy.No wind90%29.94 "Hg10 mi
6:00 AM54 °FMostly cloudy.3 mph90%29.94 "Hg10 mi
4:51 AM53 °FPassing clouds.No wind89%29.93 "Hg10 mi
3:51 AM54 °FPassing clouds.3 mph86%29.94 "Hg10 mi
2:51 AM56 °FOvercast.6 mph81%29.96 "Hg10 mi
1:51 AM55 °FOvercast.9 mph83%29.96 "Hg10 mi
12:51 AM55 °FOvercast.7 mph77%29.97 "Hg10 mi
Weather by CustomWeather, © 2014

See weather overviewHow to use our weather pages